Location: Bartlow
(52.0833°N, 0.3167°E)
Time: 05:54:21
(UTC+00:00)

Meteor 2-17 Rocket - Pass Details

Date: 01 May 2024
Orbit: 934 x 957 km, 82.5° (Epoch: 25 May)

Event Time Altitude Azimuth Distance (km) Brightness Sun altitude
Exits shadow 01:24:14 34° 223° (SW) 1,502 5.0 -20.1°
Maximum altitude 01:26:46 58° 286° (WNW) 1,094 4.7 -19.9°
Drops below altitude 10° 01:32:46 10° 5° (N) 2,665 7.8 -19.5°
Sets 01:35:19 0° 10° (N) 3,611 8.9 -19.4°
